Retour au catalogue

SL-16 DEB

ActifLEO
NORAD 22603·DEBRIS·🇷🇺 Russia

Lancé Mar 26, 1993 depuis Baikonur Cosmodrome

Loading…

Prochains Passages (prochaines 24 heures)

TLE

FraisSource: Space-Track

Époque: Sep 14, 2026, 09:21 UTC

1 22603U 93016M   26257.38999318 -.00000033  00000-0  10109-4 0  9996
2 22603  70.9944 223.3535 0161234 240.5783 289.1342 13.78758734683871

Suivez SL-16 DEB en temps réel avec AllMySat

Download on the App Store